TimeEDT,TemperatureF,Dew PointF,Humidity,Sea Level PressureIn,VisibilityMPH,Wind Direction,Wind SpeedMPH,Gust SpeedMPH,PrecipitationIn,Events,Conditions,WindDirDegrees,DateUTC
12:53 AM,69.1,66.9,93,29.82,10.0,SSW,8.1,-,N/A,,Clear,210,2013-09-01 04:53:00
1:53 AM,69.1,66.0,90,29.82,10.0,SW,12.7,-,N/A,,Clear,220,2013-09-01 05:53:00
2:53 AM,68.0,66.0,93,29.80,10.0,SSW,5.8,-,N/A,,Partly Cloudy,200,2013-09-01 06:53:00
3:53 AM,68.0,66.0,93,29.81,10.0,WSW,3.5,-,0.01,Rain,Light Rain,240,2013-09-01 07:53:00
4:53 AM,68.0,66.0,93,29.81,10.0,East,3.5,-,0.00,,Scattered Clouds,90,2013-09-01 08:53:00
5:44 AM,68.0,66.2,94,29.84,10.0,Calm,Calm,-,0.01,,Mostly Cloudy,0,2013-09-01 09:44:00
5:53 AM,66.9,66.9,100,29.83,10.0,SSE,3.5,-,0.01,,Mostly Cloudy,160,2013-09-01 09:53:00
6:53 AM,68.0,66.9,96,29.82,10.0,SW,3.5,-,N/A,,Mostly Cloudy,230,2013-09-01 10:53:00
7:53 AM,68.0,66.9,96,29.81,10.0,SSE,6.9,-,N/A,,Clear,150,2013-09-01 11:53:00
8:25 AM,69.8,68.0,94,29.84,10.0,Calm,Calm,-,N/A,,Scattered Clouds,0,2013-09-01 12:25:00
8:53 AM,69.1,68.0,96,29.81,10.0,South,9.2,-,0.01,,Partly Cloudy,190,2013-09-01 12:53:00
9:53 AM,72.0,69.1,91,29.84,10.0,South,3.5,-,N/A,,Partly Cloudy,180,2013-09-01 13:53:00
10:53 AM,75.9,69.1,79,29.84,10.0,SW,6.9,-,N/A,,Clear,220,2013-09-01 14:53:00
11:53 AM,78.1,70.0,76,29.84,10.0,SW,4.6,-,N/A,,Clear,230,2013-09-01 15:53:00
12:53 PM,81.0,70.0,69,29.83,10.0,SW,8.1,-,0.40,,Clear,220,2013-09-01 16:53:00
1:53 PM,82.0,68.0,62,29.83,10.0,West,8.1,16.1,N/A,,Clear,260,2013-09-01 17:53:00
2:53 PM,81.0,69.1,67,29.82,10.0,SW,11.5,-,N/A,,Overcast,220,2013-09-01 18:53:00
3:53 PM,81.0,70.0,69,29.81,10.0,WSW,6.9,-,N/A,,Overcast,240,2013-09-01 19:53:00
4:53 PM,81.0,70.0,69,29.79,10.0,SW,4.6,-,N/A,,Overcast,230,2013-09-01 20:53:00
5:53 PM,82.0,71.1,69,29.78,10.0,SSW,6.9,-,N/A,,Mostly Cloudy,200,2013-09-01 21:53:00
6:53 PM,81.0,70.0,69,29.80,10.0,SW,5.8,-,N/A,,Clear,220,2013-09-01 22:53:00
7:53 PM,78.1,70.0,76,29.81,10.0,South,5.8,-,N/A,,Clear,190,2013-09-01 23:53:00
8:53 PM,75.9,71.1,85,29.81,10.0,South,6.9,-,N/A,,Partly Cloudy,190,2013-09-02 00:53:00
9:53 PM,73.9,71.1,91,29.82,10.0,SSW,5.8,-,N/A,,Clear,200,2013-09-02 01:53:00
10:53 PM,73.0,70.0,90,29.82,10.0,SSW,4.6,-,N/A,,Clear,210,2013-09-02 02:53:00
11:53 PM,73.0,71.1,93,29.81,10.0,South,6.9,-,N/A,,Clear,190,2013-09-02 03:53:00